This demonstration page uses our WeatherBlox Daily Observations layout. Learn more.

Left ArrowRight Arrow

Hourly Observations for July 16, 2022

Temp ( °F °C ) Dew Point ( °F °C ) Humidity (%) Winds ( mph kmh ) Pressure ( in mb ) Visibility ( mi km ) Precip ( " mm )
12:52 am 00:52 Mostly Cloudy 76 24.4 73 22.8 91 91 NNW 5 7 29.95 1014 10 16 0.00 0.00
1:52 am 01:52 Mostly Cloudy 76 24.4 73 22.8 91 91 WNW 3 6 29.94 1014 10 16 0.00 0.00
2:52 am 02:52 Cloudy 76 24.4 73 22.8 91 91 VRB 3 6 29.94 1014 10 16 0.00 0.00
3:52 am 03:52 Cloudy 75 23.9 73 22.8 94 94 Calm 29.94 1014 10 16 0.00 0.00
4:20 am 04:20 Cloudy 75 23.9 73 22.8 94 94 N 6 9 29.94 1014 10 16 0.00 0.00
4:52 am 04:52 Cloudy 74 23.3 73 22.8 97 97 N 5 7 29.95 1014 10 16 0.00 0.00
5:52 am 05:52 Mostly Cloudy 74 23.3 72 22.2 94 94 N 5 7 29.94 1014 10 16 0.00 0.00
6:52 am 06:52 Cloudy 74 23.3 72 22.2 94 94 NE 10 17 29.94 1014 7 11 0.00 0.00
7:52 am 07:52 Cloudy 74 23.3 71 21.7 91 91 ENE 9 15 29.95 1014 10 16 0.00 0.00
8:52 am 08:52 Cloudy 76 24.4 71 21.7 85 85 NNE 3 6 29.95 1014 10 16 0.00 0.00
9:52 am 09:52 Cloudy 76 24.4 71 21.7 85 85 Calm 29.97 1015 10 16 0.00 0.00
10:52 am 10:52 Cloudy 77 25 71 21.7 82 82 ENE 6 9 29.95 1014 10 16 0.00 0.00
11:09 am 11:09 Cloudy 79 26.1 71 21.7 77 77 NE 3 6 29.93 1014 10 16 0.00 0.00
11:52 am 11:52 Cloudy 79 26.1 71 21.7 77 77 VRB 3 6 29.94 1014 10 16 0.00 0.00
12:52 pm 12:52 Mostly Cloudy 81 27.2 71 21.7 72 72 NE 5 7 29.92 1013 10 16 0.00 0.00
1:52 pm 13:52 Mostly Cloudy 82 27.8 71 21.7 69 69 ENE 7 11 29.92 1013 10 16 0.00 0.00
3:31 pm 15:31 Mostly Cloudy 85 29.4 71 21.7 63 63 ESE 8 13 29.87 1011 10 16 0.00 0.00
3:52 pm 15:52 Cloudy 84 28.9 70 21.1 63 63 E 7 11 29.90 1013 10 16 0.00 0.00
4:52 pm 16:52 Cloudy 83 28.3 72 22.2 70 70 NE 7 11 29.91 1013 10 16 0.00 0.00
5:52 pm 17:52 Cloudy 81 27.2 72 22.2 74 74 ENE 10 17 29.90 1013 10 16 0.00 0.00
6:52 pm 18:52 Cloudy 80 26.7 71 21.7 74 74 ENE 10 17 29.89 1012 10 16 0.00 0.00
7:52 pm 19:52 Cloudy with Light Rain 78 25.6 72 22.2 82 82 ESE 12 19 29.91 1013 10 16 0.00 0.00
8:52 pm 20:52 Cloudy with Light Rain 76 24.4 71 21.7 85 85 SE 10 17 29.88 1012 10 16 0.00 0.00
9:52 pm 21:52 Cloudy with Light Rain 75 23.9 71 21.7 88 88 ESE 13 20 29.89 1012 10 16 0.00 0.00
10:52 pm 22:52 Cloudy with Light Rain 74 23.3 71 21.7 91 91 NE 3 6 29.91 1013 10 16 0.01 0.25
11:52 pm 23:52 Cloudy 74 23.3 71 21.7 91 91 E 3 6 29.90 1013 10 16 0.00 0.00

Powered by AerisWeather